Regional Weather Roundup
Issued by NWS

Home | Current Version | Previous Version | Graphics & Text | Print | Product List | Glossary On
Versions: 1 2 3 4 5 6 7 8 9 10 11 12 13 14 15 16 17 18 19 20 21 22 23 24 25 26 27 28 29 30 31 32 33 34 35 36 37 38 39 40 41 42 43 44 45 46 47 48 49 50
139
ASUS45 KTFX 212110
RWRMT
MONTANA REGIONAL WEATHER ROUNDUP
NATIONAL WEATHER SERVICE GREAT FALLS MT
300 PM MDT SAT OCT 21 2017

NOTE: "FAIR" INDICATES FEW OR NO CLOUDS BELOW 12000 FEET WITH NO
SIGNIFICANT WEATHER AND/OR OBSTRUCTIONS TO VISIBILITY.

MTZ001>007-043-212200-
WEST OF THE DIVIDE

CITY           SKY/WX    TMP DP  RH WIND       PRES   REMARKS
KALISPELL      CLOUDY    45  28  51 SW12      29.95F
MISSOULA       CLOUDY    47  27  45 S3        29.99F
BUTTE          CLOUDY    41  20  43 W8        29.99F
MULLAN PASS    LGT SNOW  28  26  92 VRB3      29.92S VSB 1
ANACONDA         N/A     43  18  36 CALM      29.98R
DEER LODGE       N/A     45  19  36 S10       29.99S
EUREKA           N/A     45  28  53 MISG      29.96S
HAMILTON         N/A     46  21  36 SW7       30.00S
LIBBY            N/A     46  32  57 SW6       29.95S
$$

MTZ008-052>055-212200-
SOUTHWEST MONTANA

CITY           SKY/WX    TMP DP  RH WIND       PRES   REMARKS
BOZEMAN        MOSUNNY   48  17  29 W15G24    29.97S
DILLON         CLOUDY    44  17  33 SW17G24   30.02S
W YELLOWSTONE  CLOUDY    28  23  80 SW20G26   30.09R WCI  15
ENNIS          CLOUDY    43  18  36 S18G26    30.06S
THREE FORKS      N/A     50  13  22 SW14      29.97S
$$

MTZ009-010-012-014-046-048-049-054-212200-
EAST SLOPES AND CENTRAL MONTANA

CITY           SKY/WX    TMP DP  RH WIND       PRES   REMARKS
CUT BANK       SUNNY     46  18  32 W31G37    29.82F
GREAT FALLS    PTSUNNY   50  18  28 SW25G37   29.87S
MALMSTROM AFB  MOSUNNY   50  20  31 SW25G36   29.88S
HELENA         MOSUNNY   50  20  30 W10       29.94F
BOWMANS CRNR     N/A     45  18  34 SW20G26   29.87S
CHOTEAU          N/A     50  16  25 W17       29.87R
FAIRFIELD        N/A     49  15  26 W22G28    29.86S
POWER            N/A     48  16  27 SW21G28   29.85F
RAYNESFORD       N/A     48  18  29 W25G32    29.88F
ULM              N/A     49  18  29 W28G35    29.90S
$$

MTZ011-013-016-021-045-047-050-051-212200-
NORTH CENTRAL MONTANA

CITY           SKY/WX    TMP DP  RH WIND       PRES   REMARKS
HAVRE          MOSUNNY   56  22  26 W24G33    29.81S
LEWISTOWN      PTSUNNY   48  16  27 W16G26    29.86F
N BAR RANCH    PTSUNNY   48  12  23 W16G25    29.88F
CHINOOK          N/A     54  23  30 W20G28    29.80R
DENTON           N/A     51  17  27 W25       29.83S
GEYSER           N/A     48  17  28 W25G36    29.87R
GRASS RANGE      N/A     49  16  26 W16G25    29.83S
JUDITH GAP       N/A     46  15  28 W29G37    29.88S
WINIFRED         N/A     48  18  31 W16       29.85S
$$

MTZ017>020-022>027-061-062-212200-
NORTHEAST MONTANA

CITY           SKY/WX    TMP DP  RH WIND       PRES   REMARKS
GLASGOW        SUNNY     55  27  34 W28G37    29.75R
JORDAN           N/A     56  23  27 W23G36    29.81R
WOLF POINT     PTSUNNY   59  26  28 W26G39    29.73R
MALTA          SUNNY     55  27  33 NW28      29.78S
PLENTYWOOD       N/A     46  36  66 NW26G38   29.65R
POPLAR           N/A     55  27  33 W26G32    29.71R
SCOBEY           N/A     52  25  35 W29       29.71
$$

MTZ028>42-056>058-212200-
SOUTHCENTRAL AND SOUTHEAST MONTANA

CITY           SKY/WX    TMP DP  RH WIND       PRES   REMARKS
BAKER          PTSUNNY   53  26  35 NW26G40   29.78R
BILLINGS       MOSUNNY   54  16  22 W26G33    29.89F
LIVINGSTON     PTSUNNY   49  15  25 W26G33    29.93S
MILES CITY     MOSUNNY   57  25  29 W28G37    29.82R
BIG TIMBER     CLOUDY    46  16  29 W28G36    29.95R
EKALAKA          N/A     51  20  29 W22       29.81
FORSYTH          N/A     55  21  26 W17G26    29.84R
HARLOWTON      PTSUNNY   49  15  26 W25G37    29.90R
LAUREL           N/A     55  14  19 W22G29    29.91S
$$

REGIONAL REPORTS...DAKOTAS

CITY           SKY/WX    TMP DP  RH WIND       PRES   REMARKS
WILLISTON      CLOUDY    51  33  50 NW23G36   29.67R
MINOT          CLOUDY    51  36  56 W29G39    29.56S
DICKINSON      CLOUDY    50  33  52 W26G36    29.68R
BEACH            N/A     50  25  37 NW26G36   29.76S
CROSBY         CLOUDY    46  36  66 NW21G31   29.61R
TIOGA          CLOUDY    45  41  87 NW31G51   29.63R
WATFORD CITY   CLOUDY    48  34  57 W18G31    29.67R
BISMARCK       CLOUDY    51  38  60 NW16G33   29.67R
GRAND FORKS    LGT RAIN  61  46  57 W22G31    29.50R
FARGO          CLOUDY    60  46  59 W20       29.55R
BUFFALO SD       N/A     54  24  31 W33G49    29.72R
RAPID CITY     SUNNY     58  21  24 NW18G29   29.84R
$$

REGIONAL REPORTS...WYOMING/IDAHO/WASHINGTON

CITY           SKY/WX    TMP DP  RH WIND       PRES   REMARKS
GILLETTE       SUNNY     52  13  21 NW24G32   29.90S
SHERIDAN       CLOUDY    54  11  18 NW17      29.90R
BUFFALO WY     SUNNY     53   1  12 W22       29.93R
CODY           PTSUNNY   47  15  27 SW18G31   29.98S
YELLOWSTONE LA   N/A     27  19  72 W9        30.10R WCI  18
IDAHO FALLS    CLOUDY    43  25  49 SW21G31   30.16F
SALMON         CLOUDY    46  24  42 SW16      30.06S
BOISE          CLOUDY    49  28  44 S8        30.15S
SPOKANE        LGT RAIN  46  34  62 S8        29.93F
$$

REGIONAL REPORTS...ALBERTA

CITY           SKY/WX    TMP DP  RH WIND       PRES   REMARKS
EDMONTON       SUNNY     46  23  39 N2        29.66F
CALGARY        MOSUNNY   50  10  20 W16       29.69S
LETHBRIDGE     MOSUNNY   50  21  32 W33G40    29.77S
MEDICINE HAT   MOSUNNY   55  25  30 W17       29.73F
$$

REGIONAL REPORTS...SASKATCHEWAN

CITY           SKY/WX    TMP DP  RH WIND       PRES   REMARKS
SWIFT CURRENT  MOSUNNY   48  30  49 NW25G36   29.68R
REGINA         LGT RAIN  43  41  93 NW26G32   29.57R
SASKATOON      CLOUDY    43  41  93 W14G22    29.60R
$$




USA.gov is the U.S. government's official web portal to all federal, state and local government web resources and services.